Location: Zagreb
(45.8000°N, 16.0000°E)
Time: 13:46:44
(UTC+02:00)

Transit 2A Rocket - Pass Details

Date: 13 August 2022
Orbit: 593 x 907 km, 66.7° (Epoch: 25 September)

Event Time Altitude Azimuth Distance (km) Brightness Sun altitude
Rises 18:16:13 0° 187° (S) 3,019 8.2 18.1°
Reaches altitude 10° 18:18:45 10° 178° (S) 2,061 7.3 17.6°
Maximum altitude 18:22:52 33° 115° (ESE) 1,059 5.5 16.9°
Drops below altitude 10° 18:26:49 10° 51° (NE) 1,963 6.8 16.2°
Sets 18:29:10 0° 41° (NE) 2,852 7.6 15.8°
